Terminal Aerodrome Forecast
Issued by NWS Knoxville/Tri Cities, TN

Home | Current Version | Previous Version | Text Only | Print | Product List | Glossary On
Versions: 1 2 3 4 5 6 7 8 9 10 11 12 13 14 15 16 17 18 19 20 21 22 23 24 25 26 27 28 29 30 31 32 33 34 35 36 37 38 39 40 41 42 43 44 45 46 47 48 49 50
000
FTUS44 KMRX 291009 AAD
TAFCHA
TAF AMD
KCHA 291009Z 2910/3006 00000KT 4SM BR FEW007 BKN027
      TEMPO 2910/2912 2SM BR SCT007
     FM291400 VRB03KT P6SM VCSH BKN040 OVC120
     FM291900 17007KT P6SM VCTS BKN035CB OVC100
     FM300000 VRB03KT P6SM SCT040 BKN120=

USA.gov is the U.S. government's official web portal to all federal, state and local government web resources and services.